Theta_e
318 318 319 319 319 320 320 321 321 322 323 323 324 324 325 325 326 327 328 329 331 331 331 331 331 331 332 332 332 331 331 326 322 322 320 325 331 335 334 339 338 336 328 317 315 308 303 302 303 304 305 306 305 309 309 309 305 306 301 293 293 293 295 297 296 296 299 295 296 295 295 296 296 298 302 305 304 302 305 308 306 310 310 311 312 312 317 319
318 318 318 318 318 319 320 320 321 321 322 323 323 324 324 325 326 326 327 329 330 331 331 331 331 331 332 332 332 331 329 326 320 320 320 330 333 335 336 336 336 335 330 323 313 305 305 302 301 305 304 303 307 307 309 308 308 301 295 297 298 295 299 302 299 299 297 300 295 294 294 296 297 299 300 302 300 304 304 304 304 309 309 312 313 317 319 318
317 318 318 318 318 319 320 320 321 321 322 322 323 323 324 324 325 326 327 328 329 330 331 331 331 331 331 332 332 331 328 322 321 315 322 332 333 334 337 337 336 333 323 317 311 306 304 305 304 305 304 302 303 304 307 306 307 300 300 296 297 301 301 301 299 299 297 299 296 294 295 295 298 300 300 302 298 300 302 301 303 304 307 309 312 316 318 318
317 317 318 318 318 318 319 320 321 321 321 322 323 323 323 324 325 325 326 327 328 329 330 331 331 330 330 331 332 329 325 320 312 318 325 332 332 333 335 337 338 328 315 313 308 305 305 307 306 305 304 301 299 305 304 306 305 302 301 298 300 303 302 305 301 301 299 296 296 294 295 295 297 299 301 298 301 300 301 301 306 306 308 313 315 316 317 317
317 317 317 318 318 318 319 320 320 321 321 322 322 323 323 324 324 324 325 326 327 328 329 330 331 330 329 329 330 329 315 304 305 319 325 332 333 334 334 335 337 317 319 312 311 308 307 306 306 304 302 297 300 303 301 303 304 302 302 301 302 302 304 305 305 302 295 294 293 294 296 296 298 298 298 301 300 299 303 306 305 307 308 314 314 316 316 317
317 316 317 318 318 318 319 319 320 320 321 321 321 322 322 323 323 324 324 325 326 328 329 330 330 328 327 327 326 322 309 291 303 312 324 333 334 334 334 335 336 316 313 312 311 307 308 307 305 301 300 299 300 301 300 304 305 301 300 301 301 301 305 305 301 302 295 295 295 294 296 298 298 297 295 301 302 301 301 302 305 306 311 315 316 317 316 316
316 316 316 317 317 318 318 318 319 320 320 321 321 321 321 322 323 323 324 325 326 327 328 329 330 328 327 328 324 319 308 306 309 315 326 334 335 334 334 334 332 315 315 310 308 307 304 308 305 299 299 299 297 300 301 304 304 302 299 299 303 302 305 301 301 295 297 300 300 295 297 298 296 298 296 298 302 303 298 297 296 302 316 316 316 317 317 317
316 317 316 317 317 317 318 318 319 319 320 320 320 321 321 322 323 323 324 324 325 326 328 329 329 327 327 322 316 311 309 308 311 315 327 333 332 332 333 328 319 314 313 312 308 306 303 303 302 303 299 298 296 302 302 303 302 301 300 299 300 302 302 302 302 300 295 296 295 295 298 297 296 296 294 296 301 302 299 304 306 313 315 314 316 316 317 317
316 316 317 317 317 317 318 318 318 318 319 319 320 321 321 321 322 322 323 324 325 326 327 328 328 327 327 319 313 308 307 317 318 319 322 325 327 328 327 319 318 315 313 311 310 309 305 301 302 303 296 299 300 301 301 302 298 301 302 299 302 302 302 302 303 302 302 298 295 299 295 294 292 294 295 297 297 299 302 308 311 313 313 314 315 316 317 317
315 316 316 317 317 317 317 317 318 318 319 319 320 320 320 321 321 322 323 324 325 325 326 327 327 327 322 315 313 303 317 323 321 323 323 326 326 326 324 319 318 317 312 310 308 307 304 302 305 305 303 302 303 300 300 302 298 300 302 302 302 303 304 302 303 299 296 300 294 301 299 299 295 296 298 298 300 299 305 306 308 312 313 314 315 315 316 317
316 316 316 317 317 317 317 317 318 318 318 319 320 320 320 321 321 322 322 323 324 325 326 326 325 325 316 315 308 304 321 323 322 323 325 327 325 324 323 315 319 316 315 308 308 309 307 305 306 306 305 300 303 300 302 302 303 302 302 301 301 302 302 301 300 300 297 303 292 299 299 296 295 294 300 300 297 298 302 305 309 310 312 314 314 314 316 316
316 315 315 316 317 317 317 317 317 318 318 319 319 320 320 321 321 322 323 324 323 325 325 326 325 323 318 312 309 311 319 320 322 323 326 327 324 325 324 316 318 318 314 308 307 309 312 310 306 304 299 306 300 301 300 303 304 301 302 300 298 299 301 300 302 302 299 301 293 294 295 292 294 296 302 301 295 296 298 304 307 309 310 312 314 314 315 316
315 315 315 315 316 317 317 316 317 318 318 318 319 319 319 321 321 321 322 322 323 323 324 324 324 321 314 305 310 322 319 319 322 324 324 325 319 318 319 315 314 313 314 311 308 312 314 312 308 304 304 303 300 300 304 305 304 302 301 300 299 298 297 302 301 293 297 300 292 298 294 295 295 299 301 301 295 295 296 297 302 307 309 310 312 314 315 316
314 314 315 315 315 316 317 316 317 318 318 318 319 319 319 320 321 321 321 320 322 323 323 323 322 318 312 306 316 321 322 319 323 323 320 320 320 312 316 315 314 312 313 312 311 312 313 312 309 304 308 305 302 306 304 302 302 298 297 297 296 293 292 298 303 294 299 296 293 301 295 297 299 299 300 299 295 298 297 297 296 301 305 307 309 312 314 316
314 314 315 315 315 316 316 316 316 317 318 318 318 319 319 319 320 320 321 319 322 323 323 322 319 312 304 305 318 321 326 322 320 319 320 318 314 312 311 314 314 313 314 314 313 312 315 315 311 307 305 305 304 303 297 298 296 296 295 293 292 294 292 296 299 298 300 300 293 299 293 297 302 305 300 300 296 297 300 300 300 297 299 303 306 308 311 314
314 314 315 314 315 316 316 316 316 317 317 318 318 319 319 320 320 321 320 318 321 321 318 313 312 311 304 300 310 323 319 313 315 320 319 319 317 313 312 313 314 315 316 313 316 315 311 311 307 305 305 306 303 297 294 295 294 294 297 288 291 289 294 297 299 296 304 300 295 299 293 289 295 299 300 301 299 297 301 302 302 302 300 298 301 306 308 310
314 314 315 315 315 316 316 316 316 317 317 318 318 318 319 320 320 321 318 316 316 317 314 308 314 312 297 309 317 311 310 314 319 317 316 317 316 311 312 311 311 312 315 314 314 313 310 306 307 305 309 303 300 299 294 293 293 294 293 294 287 292 291 294 297 298 297 301 298 296 296 299 299 300 300 300 300 297 299 301 302 302 302 301 299 299 302 306
314 314 314 315 315 315 316 316 316 316 316 317 317 316 315 319 317 317 315 313 312 314 313 309 312 304 300 307 302 306 315 314 316 317 316 313 314 314 312 307 310 312 313 310 311 307 306 302 304 298 302 302 302 299 294 290 293 292 292 292 293 293 295 295 295 297 297 296 298 296 294 296 300 301 300 300 299 299 299 301 302 302 302 303 301 300 299 300
313 313 314 314 315 315 316 316 316 316 316 317 316 318 316 314 311 310 308 308 305 300 297 297 300 291 289 300 307 308 313 316 317 317 311 313 314 315 312 312 312 309 306 305 304 308 305 303 303 299 295 296 298 300 297 297 297 296 295 293 293 293 293 295 298 298 300 297 295 296 296 297 298 299 300 300 298 298 300 300 300 300 301 301 301 301 301 301
313 313 314 315 315 315 316 316 316 315 315 312 310 307 307 301 300 299 304 305 301 301 303 303 305 303 299 300 304 309 313 314 312 313 314 315 313 310 309 310 306 309 304 301 301 305 306 298 295 294 297 298 299 301 302 302 302 301 299 298 296 296 296 297 298 299 300 297 297 297 298 299 301 301 301 302 302 298 299 300 302 303 303 303 303 303 304 303
313 313 314 314 315 315 315 315 315 316 315 311 308 303 295 297 291 289 298 301 304 305 300 304 305 303 300 299 304 307 307 308 313 312 313 319 314 310 304 306 303 300 302 303 300 303 304 297 297 300 301 302 300 301 302 302 302 301 299 298 297 298 296 299 300 300 299 299 294 297 297 298 300 302 303 303 300 300 301 302 302 304 305 306 306 307 308 309
313 312 314 314 315 315 315 315 314 315 314 310 307 301 302 302 302 304 302 293 300 302 298 300 306 300 301 301 303 305 311 306 307 310 313 314 310 306 304 304 300 297 302 300 299 297 295 294 298 301 303 303 302 301 301 300 300 301 299 299 297 298 299 300 300 300 300 298 298 296 295 297 300 302 303 304 303 304 304 304 305 305 306 306 307 307 308 308
312 312 314 314 314 314 315 315 315 314 310 306 303 303 301 305 303 304 302 297 297 300 299 300 301 301 297 303 303 304 303 303 301 308 309 312 307 308 304 301 299 300 301 300 295 294 291 295 300 302 301 300 299 300 300 300 300 299 298 297 295 299 298 295 299 298 299 300 293 297 297 299 302 303 303 304 304 305 307 306 306 307 307 307 308 309 309 308
312 313 314 314 314 314 315 315 315 311 307 307 306 304 304 303 304 306 298 290 286 296 298 299 302 302 298 300 303 303 301 301 304 303 313 310 304 309 304 302 299 300 296 299 298 296 294 298 302 300 299 299 296 298 299 298 297 299 299 298 298 297 300 300 299 298 298 298 299 299 298 298 300 300 301 303 305 305 306 306 306 307 308 309 309 309 309 309
313 313 314 314 313 315 314 314 307 305 309 307 305 308 303 304 306 306 294 286 291 289 300 300 299 297 302 306 304 302 301 302 302 308 311 310 306 305 302 307 302 297 298 300 300 297 297 300 303 299 298 297 296 296 298 298 295 297 300 300 300 300 300 300 300 299 296 294 295 298 291 293 299 301 302 304 302 301 304 304 305 306 307 307 307 307 309 309
312 313 313 313 313 312 314 304 303 308 305 302 306 309 303 303 303 304 295 283 281 288 297 289 304 297 308 299 300 300 302 297 303 304 311 311 313 307 305 301 303 296 299 299 298 299 298 300 301 298 296 296 296 296 298 299 295 294 296 303 302 301 301 299 298 298 290 290 296 297 292 289 295 298 299 299 300 300 303 302 304 305 306 307 307 308 309 309
313 313 313 313 313 313 303 297 308 307 299 302 309 308 302 303 305 303 291 280 278 291 286 298 298 295 306 300 301 301 287 292 302 304 306 308 306 312 301 299 303 303 303 302 297 293 299 298 298 298 297 295 294 294 298 299 295 292 300 302 302 300 298 299 299 297 294 297 298 295 295 290 291 297 301 301 300 299 301 302 303 304 305 306 307 308 308 309
312 313 313 314 312 311 304 307 305 301 301 306 309 305 304 304 307 303 289 273 273 295 288 294 296 305 301 301 302 296 293 302 294 299 306 307 309 305 302 300 299 299 301 300 287 298 300 295 297 296 296 295 293 296 299 300 296 295 298 302 300 300 298 299 298 292 292 292 290 292 291 289 291 296 300 301 296 298 299 301 303 304 304 304 306 307 308 309
312 313 313 314 313 312 309 305 303 301 305 307 305 303 305 306 302 292 281 272 288 285 305 293 306 299 298 301 297 297 294 298 292 299 303 307 308 305 298 301 302 301 302 300 293 297 299 300 299 299 296 293 295 295 298 301 296 295 298 302 301 300 299 299 293 293 288 289 288 293 293 288 290 291 295 295 297 298 299 301 303 304 304 304 304 305 307 308
312 312 313 314 311 308 304 303 302 304 307 306 304 305 305 301 292 282 276 269 291 277 292 295 296 290 298 293 294 297 294 293 295 297 301 300 302 304 301 304 300 300 297 301 299 298 299 303 303 299 296 297 296 297 301 301 298 297 299 297 296 294 294 287 289 290 289 284 289 295 294 292 287 292 294 292 295 297 296 300 301 302 303 303 303 305 306 307
312 313 312 313 304 306 306 300 304 307 306 306 305 303 300 293 283 276 272 279 289 283 295 293 289 298 292 290 288 295 294 292 292 297 294 300 297 301 299 299 303 298 296 296 296 297 297 298 298 298 303 298 300 295 298 302 299 301 292 291 293 286 287 288 287 288 286 285 291 295 295 294 285 289 294 297 295 298 299 298 300 301 303 304 304 304 305 306
312 313 314 310 308 309 301 300 305 306 305 305 303 298 293 279 282 274 275 294 279 283 287 287 294 292 292 294 292 292 290 291 293 294 291 293 292 293 294 289 296 287 287 290 289 296 294 295 298 299 302 301 297 295 293 298 299 298 294 294 288 284 287 283 287 283 285 284 288 290 294 289 289 294 292 295 295 295 295 300 301 302 303 303 304 304 305 306
311 313 313 310 309 305 305 307 306 304 305 304 299 296 284 278 271 279 281 283 275 289 286 294 291 291 292 291 288 293 294 288 292 292 292 291 292 293 295 294 290 288 284 290 289 290 291 296 296 296 298 302 300 293 291 292 296 296 294 291 286 283 282 279 283 286 286 288 290 288 290 287 291 294 298 299 300 298 296 297 300 301 302 303 304 304 304 304
311 313 307 309 308 307 305 307 306 305 303 301 296 288 284 276 275 287 284 276 277 289 292 290 292 292 292 286 288 293 287 290 292 290 292 287 289 288 290 293 293 287 287 291 287 288 284 285 291 295 291 300 299 297 297 294 296 296 297 294 288 286 282 277 281 280 281 284 285 288 286 282 285 289 292 294 295 300 303 302 301 302 302 301 299 297 297 298
312 310 307 307 306 305 306 306 306 305 301 297 291 284 276 276 282 279 280 276 276 287 288 293 290 289 287 289 291 293 291 287 291 290 287 288 285 288 287 288 292 291 287 286 289 288 288 289 295 300 299 300 296 299 301 296 294 297 297 296 289 287 288 282 281 283 285 284 283 285 285 287 291 294 291 293 294 295 295 296 295 297 299 299 300 302 302 301
308 304 307 303 304 304 306 306 305 303 298 292 285 280 277 281 277 281 281 285 284 285 288 291 289 286 286 285 289 290 291 288 289 290 286 287 288 288 289 290 289 292 286 285 289 286 288 286 295 299 301 298 298 300 299 301 287 294 295 289 292 297 292 282 280 279 278 278 282 285 286 288 295 297 299 299 295 296 294 295 295 297 299 299 301 302 302 302
302 303 299 302 303 305 305 306 305 302 298 291 283 279 284 284 283 282 289 285 285 291 288 282 283 284 283 281 285 288 288 290 289 289 284 287 286 288 287 287 294 293 293 290 284 289 286 288 296 295 294 299 302 300 300 301 298 297 289 293 294 292 289 288 280 276 275 276 276 286 283 285 283 283 290 294 295 297 296 295 297 298 299 301 302 302 303 303
300 301 301 301 303 305 306 306 305 300 295 287 281 285 284 284 285 286 287 287 289 288 286 285 285 289 283 283 283 286 288 286 285 288 284 288 283 294 288 287 293 293 294 295 289 288 290 285 290 296 297 298 300 300 297 300 302 297 294 302 292 285 285 286 282 278 276 277 275 283 285 285 286 287 285 287 290 292 295 296 295 296 296 298 300 302 304 304
301 299 293 301 304 305 305 306 302 296 289 282 282 283 283 284 286 286 287 290 290 287 285 285 283 287 287 284 285 288 288 283 287 285 284 285 283 290 289 291 288 294 295 295 289 287 288 284 287 296 296 297 298 297 287 292 298 296 298 297 299 293 289 286 286 285 286 278 278 280 282 280 289 289 291 286 286 291 293 294 295 297 298 300 301 304 305 306
297 292 289 301 304 304 306 304 298 293 286 281 284 284 286 280 284 286 290 292 286 285 282 283 285 285 287 286 288 284 288 287 287 284 285 286 285 292 289 294 290 292 294 295 290 294 284 288 282 288 295 297 289 294 291 293 290 291 292 291 292 290 290 293 290 287 284 281 281 278 279 282 289 290 290 290 290 292 294 295 297 299 300 300 302 304 306 306
296 290 289 301 303 304 304 298 288 284 284 285 285 285 283 284 285 287 290 289 287 287 286 285 286 285 286 285 285 289 286 286 287 285 285 283 286 281 288 291 293 290 294 292 290 290 285 285 282 286 287 289 292 298 297 296 296 294 293 291 293 290 286 284 282 290 288 284 278 278 278 286 286 287 293 292 294 294 296 297 298 299 301 301 302 303 305 306
291 284 288 297 302 304 296 284 285 287 285 284 284 284 283 291 285 287 289 286 285 283 286 286 284 285 284 284 286 287 286 285 286 286 286 284 287 285 287 293 294 294 290 285 287 291 290 286 284 283 284 286 291 292 291 291 292 293 294 292 296 294 291 287 281 284 287 288 283 285 281 284 287 286 289 291 292 293 295 296 297 299 300 301 301 301 302 303
289 285 293 298 299 301 291 285 286 284 283 285 287 285 285 285 286 288 287 286 286 284 284 285 286 285 285 286 286 286 287 285 286 284 287 286 284 286 288 291 292 292 293 288 290 290 292 284 283 284 285 286 290 291 290 290 291 290 291 293 294 291 292 290 288 288 287 287 285 284 282 285 291 286 286 286 286 289 291 292 296 297 298 299 300 299 299 300
287 287 289 297 297 300 289 281 280 282 282 283 286 284 285 286 285 286 287 284 285 283 284 283 284 285 285 284 286 285 288 282 286 286 283 283 284 287 291 291 293 290 291 288 288 291 286 285 286 281 280 282 285 287 285 288 289 285 287 292 294 295 295 294 292 287 285 286 287 285 279 285 294 289 286 286 287 289 290 290 291 294 295 297 298 298 299 299
288 289 288 291 293 293 286 287 285 283 282 283 284 283 283 284 286 287 286 284 284 282 283 282 284 284 282 284 286 286 287 284 282 287 284 283 284 288 290 292 293 291 292 293 294 295 288 286 284 280 276 276 276 278 280 283 283 286 288 289 292 293 293 291 286 287 283 286 288 285 285 291 294 291 290 286 286 288 287 286 286 290 293 295 296 296 297 296
286 281 285 286 287 286 285 285 285 283 281 282 282 283 284 282 285 286 286 283 284 283 283 284 283 285 283 285 284 284 285 283 283 282 285 282 283 286 288 291 292 291 293 295 294 293 284 286 285 285 283 281 283 284 286 287 286 283 285 288 289 293 294 293 290 287 284 287 286 288 289 290 291 294 293 289 285 288 289 288 289 291 291 291 292 294 295 296
286 283 283 280 284 284 284 285 285 286 283 286 281 284 281 283 283 284 287 285 285 284 283 283 285 285 284 285 282 282 284 282 283 283 283 283 283 285 287 290 290 292 294 292 294 289 284 283 285 285 286 286 287 285 287 288 285 286 286 286 289 288 288 287 285 284 291 287 283 290 291 288 290 294 295 293 290 288 286 287 288 288 290 293 294 292 293 293
281 282 286 288 283 280 281 282 286 286 286 287 283 285 283 282 283 282 284 283 283 283 285 284 285 285 287 286 285 282 284 282 281 282 283 283 286 287 288 290 291 292 292 289 292 287 284 283 285 285 285 286 287 286 287 286 286 286 286 286 286 287 286 285 286 288 287 284 283 289 287 287 291 294 294 292 292 292 292 292 291 290 289 289 289 290 292 293
283 283 284 288 282 281 283 285 286 286 285 285 283 285 282 282 281 283 282 282 283 282 283 281 283 283 285 286 287 283 285 281 279 282 284 284 285 286 285 288 291 291 291 289 290 287 287 282 284 285 284 286 285 285 286 285 285 285 285 286 287 286 286 286 286 287 287 285 286 286 288 287 289 291 293 294 294 294 294 292 293 294 292 290 290 289 290 291
279 280 279 284 284 284 284 285 285 285 283 286 281 282 284 283 282 282 282 282 280 283 283 284 283 282 284 285 286 285 286 287 286 282 284 286 284 286 286 287 286 289 292 288 289 288 287 282 288 284 283 283 284 285 285 285 285 284 284 285 286 286 286 286 286 286 286 285 286 286 286 286 293 294 294 294 293 291 291 292 293 294 295 294 293 293 293 293
283 285 287 284 282 283 285 285 284 284 282 282 282 282 284 284 283 283 282 282 282 281 281 284 283 281 282 283 284 285 288 287 287 287 287 288 284 288 287 284 290 285 288 286 286 285 287 283 286 284 282 281 284 284 284 285 285 285 284 284 284 284 283 284 284 285 285 285 285 285 284 285 292 294 294 294 292 291 291 292 293 294 295 295 295 295 294 292
283 286 287 286 280 285 283 284 284 284 280 283 283 283 284 284 284 284 281 284 283 283 283 284 283 285 280 283 282 285 285 284 287 287 290 287 289 289 283 287 291 289 287 287 287 285 285 285 282 281 280 278 283 285 284 284 283 281 281 285 286 286 286 287 288 289 288 289 285 283 284 290 293 294 292 292 293 292 292 292 292 293 293 294 295 296 296 294
Wind_Speed
20 20 20 20 20 18 17 18 17 17 16 14 14 13 13 12 11 11 10 11 11 10 9 9 9 10 10 11 10 10 8 5 2 7 9 11 6 13 8 2 5 6 5 2 4 6 3 3 1 4 2 1 2 0 1 2 1 1 1 3 2 3 4 4 5 8 1 1 0 1 4 3 3 0 1 1 4 2 0 1 3 1 2 2 3 2 3 7
21 21 21 20 20 19 18 18 18 17 16 15 14 13 13 13 11 11 10 10 10 10 10 9 9 10 10 11 11 11 8 7 8 8 17 5 13 6 11 2 3 5 5 0 0 2 0 2 1 2 2 0 1 0 1 1 0 2 2 2 7 5 4 6 4 5 2 0 2 3 1 4 4 7 3 3 1 1 1 3 2 3 4 1 2 4 9 9
21 21 21 21 21 20 19 18 18 17 16 15 15 14 13 12 12 11 10 9 10 10 9 10 10 10 12 11 12 9 6 6 10 19 16 18 11 11 11 7 3 5 2 2 1 2 2 1 1 2 2 1 4 2 2 1 1 2 4 5 5 5 3 3 3 3 5 1 1 3 1 2 1 4 1 2 3 1 7 5 2 4 6 5 0 4 7 8
22 21 21 21 21 20 19 19 18 18 16 15 15 14 14 11 11 11 10 10 10 10 9 10 10 10 10 12 10 7 6 5 15 6 8 18 19 17 13 9 7 3 4 3 4 2 2 3 2 2 1 1 2 1 1 3 2 1 1 4 3 4 2 3 4 4 2 1 0 4 1 1 2 4 3 4 5 4 6 6 10 11 11 8 5 6 7 9
23 22 21 21 21 20 20 19 18 18 17 16 15 15 14 11 11 12 11 11 11 11 11 10 10 9 10 11 11 8 5 1 6 11 16 20 23 21 17 12 7 4 4 4 4 3 2 1 2 2 2 2 1 1 2 1 0 3 5 2 2 1 1 4 4 4 3 2 4 1 3 3 1 1 3 8 7 7 10 9 10 8 6 10 10 9 7 9
24 23 21 22 21 21 20 20 19 18 17 17 16 15 14 13 11 11 11 11 11 11 12 11 10 11 9 9 8 7 8 9 2 1 4 18 23 23 20 15 9 6 6 5 4 3 3 2 2 2 0 1 3 6 2 1 1 4 1 1 3 2 2 0 1 4 4 1 2 1 2 3 4 1 3 7 9 5 5 3 7 8 6 5 5 10 10 10
24 23 22 21 21 21 20 20 19 18 17 17 16 15 14 14 12 12 12 11 11 12 12 12 11 11 11 11 8 11 13 6 1 6 4 13 21 21 21 17 10 6 6 5 4 3 3 4 1 2 4 2 3 3 3 2 1 1 4 0 4 2 4 1 0 3 2 8 1 2 1 1 1 3 1 4 8 6 3 1 3 3 7 8 10 11 15 16
24 23 20 20 20 21 20 19 19 18 17 16 16 16 15 14 13 13 12 12 12 12 12 11 11 12 12 7 7 9 11 13 8 2 5 3 14 16 18 11 11 7 7 9 9 5 5 7 9 2 2 7 3 7 1 1 1 4 4 3 2 1 4 3 1 1 0 2 0 2 0 4 5 2 1 5 10 9 4 1 2 5 7 6 8 12 11 11
23 22 20 20 20 19 18 20 19 18 17 16 16 15 15 15 14 13 13 12 12 11 12 11 12 12 12 3 9 9 16 10 8 1 4 6 9 11 13 8 10 10 7 7 8 8 7 6 4 5 4 5 3 4 1 4 6 5 7 3 0 2 2 3 4 5 1 2 1 1 5 5 3 1 5 9 8 5 3 3 4 5 6 8 11 13 12 12
25 23 22 20 20 19 19 19 19 18 17 16 15 15 15 15 14 14 13 12 11 11 11 11 10 13 13 5 5 16 2 11 8 5 7 8 9 10 11 7 14 11 9 7 5 8 8 5 10 5 4 1 5 3 3 6 5 4 4 5 5 4 1 1 2 2 1 2 1 4 5 5 1 3 9 1 9 4 4 4 3 7 9 10 8 8 9 11
25 26 23 21 20 20 20 20 19 19 18 16 16 15 15 15 14 13 12 12 10 10 10 11 9 10 9 3 11 15 2 12 6 5 9 11 12 11 13 6 10 10 10 6 9 9 6 6 4 4 1 4 5 2 2 3 1 2 2 0 4 7 3 2 2 4 0 3 4 5 6 1 2 1 11 2 2 6 7 5 5 5 6 7 7 7 7 8
26 25 25 22 20 21 21 20 20 19 18 17 16 15 15 14 13 13 12 9 10 10 12 11 11 6 4 5 8 6 2 3 4 6 9 13 9 13 12 8 8 10 11 10 6 5 7 6 7 6 5 3 1 1 3 5 1 1 3 6 4 3 4 4 7 4 4 4 3 4 2 3 2 10 9 1 3 4 6 6 5 7 6 7 7 7 7 12
27 26 25 24 22 21 21 21 20 19 18 17 15 15 14 13 12 11 11 10 9 11 11 11 7 5 3 12 9 1 5 4 7 7 4 6 6 3 4 7 3 2 4 9 8 5 6 8 6 7 1 4 4 4 1 3 1 2 1 2 6 4 5 7 2 2 5 3 4 3 8 4 11 16 7 1 5 4 3 5 6 6 7 7 6 8 9 8
27 25 23 22 21 20 20 21 20 19 18 16 15 14 13 12 13 13 13 12 9 11 11 11 5 5 7 8 1 1 1 2 5 8 6 5 11 3 5 3 5 4 4 4 3 2 5 4 6 4 1 2 3 1 1 2 1 4 2 2 8 5 5 2 6 5 5 2 6 4 11 8 6 12 6 4 4 8 7 8 7 7 7 7 7 8 10 11
27 25 22 22 21 20 20 20 20 20 19 17 15 13 12 11 12 12 12 11 12 9 11 7 5 5 6 6 0 5 8 2 3 5 9 11 11 5 6 5 4 4 4 7 4 1 3 6 7 4 1 1 2 2 1 1 0 2 2 8 1 9 2 2 1 9 9 1 4 6 10 10 12 13 4 7 4 6 9 9 8 8 8 8 7 9 9 11
25 24 22 22 22 20 20 19 20 19 19 17 14 12 11 9 9 12 12 12 11 7 1 8 9 5 1 6 2 5 3 5 6 6 5 12 11 8 9 7 7 6 7 2 2 2 3 3 2 4 2 1 2 5 2 0 3 2 10 0 5 3 8 5 3 6 10 5 1 12 8 1 7 10 5 6 8 6 8 9 9 9 8 8 8 8 9 9
26 26 23 22 22 21 20 19 19 18 18 15 13 11 10 8 9 10 10 7 3 4 6 4 7 7 6 0 3 6 4 4 3 3 3 2 8 12 11 10 4 7 8 4 3 5 1 3 0 1 1 2 3 6 5 10 10 9 3 10 2 6 2 7 2 3 6 7 7 7 10 14 4 1 1 3 2 5 9 13 11 9 7 7 7 8 9 9
25 26 24 22 22 22 20 19 18 19 16 14 11 9 8 10 1 2 4 5 3 2 3 4 5 5 11 4 6 7 5 6 6 6 5 1 10 15 13 4 4 11 10 6 1 6 2 4 2 7 2 4 6 10 14 19 14 9 6 7 4 1 6 6 5 4 6 4 8 5 10 13 12 7 3 2 1 6 9 12 10 8 8 8 7 8 9 10
26 26 24 22 22 22 21 19 19 17 16 13 13 7 5 11 5 2 1 3 6 4 9 8 9 15 10 16 12 5 5 5 5 9 7 9 4 9 5 6 13 14 8 8 3 10 2 4 2 6 13 12 15 17 18 3 5 11 9 4 3 6 6 9 5 2 10 7 8 9 10 13 16 12 8 5 3 6 9 7 6 8 8 7 7 8 9 10
25 25 24 22 22 21 21 20 19 19 18 12 7 7 4 4 2 3 4 5 9 9 3 12 17 2 4 4 10 1 1 1 8 3 7 2 11 8 8 8 5 8 10 10 7 10 5 10 13 17 19 18 16 14 14 7 3 4 7 8 12 11 7 4 4 2 6 4 10 12 11 15 16 9 9 10 8 5 7 9 9 9 9 10 9 11 12 12
24 23 23 23 22 21 21 21 19 18 21 9 10 7 8 12 12 11 11 6 12 12 3 5 16 10 0 3 2 11 7 2 1 6 9 6 7 16 5 9 11 10 12 11 10 2 6 11 16 20 20 16 16 15 11 11 7 2 4 9 10 10 12 6 8 4 3 7 2 7 9 14 17 12 10 8 6 11 13 13 14 16 15 13 13 15 16 15
26 27 24 23 22 22 21 20 20 17 19 8 11 10 3 13 3 1 5 4 6 7 3 4 7 4 2 1 3 2 5 7 10 7 4 11 10 14 8 11 15 13 11 7 9 8 10 18 23 22 10 7 9 12 13 14 10 2 0 1 4 8 3 1 3 1 3 3 9 3 7 11 17 14 12 13 12 12 13 14 16 17 17 14 14 16 16 13
26 26 24 23 23 22 22 20 19 19 8 10 13 13 7 5 2 5 4 3 3 3 4 3 10 10 0 0 2 2 4 7 12 9 12 9 11 14 13 12 15 13 13 14 16 12 14 16 21 6 9 12 11 9 9 7 7 9 7 6 7 2 6 5 3 3 4 7 2 5 10 10 13 11 11 10 11 11 14 14 15 15 16 17 17 16 15 16
26 25 23 23 23 22 21 20 17 13 11 13 15 14 0 2 3 2 2 5 2 4 5 3 4 5 4 5 3 4 7 2 5 13 7 11 15 10 12 15 16 13 13 16 18 18 20 9 7 8 12 15 11 7 10 9 11 12 12 9 6 4 5 4 1 0 0 3 1 7 11 12 12 15 12 10 12 14 15 11 13 14 13 16 15 14 14 17
26 23 23 23 22 23 20 18 10 9 11 12 12 7 1 2 5 6 5 2 2 3 1 1 2 2 4 2 1 7 2 1 2 4 11 10 10 6 11 9 10 13 14 16 14 14 17 5 15 16 15 8 7 9 14 14 13 12 15 15 8 3 2 3 1 2 1 3 2 3 5 11 7 17 17 11 8 12 13 14 14 16 15 15 16 18 18 16
25 23 23 23 23 22 22 11 8 10 12 15 10 10 3 5 5 7 6 2 5 3 4 12 5 10 6 3 3 1 3 8 1 3 10 9 1 4 5 10 7 14 19 18 14 8 12 6 13 12 8 12 15 14 14 13 13 12 11 14 8 5 5 4 4 3 2 6 3 0 8 12 3 10 7 4 6 10 10 11 14 14 14 15 16 17 17 16
25 25 24 24 23 23 12 9 8 11 13 12 8 11 5 6 5 10 4 4 7 8 9 2 10 2 7 6 9 7 10 8 2 2 6 1 14 2 7 8 7 4 8 5 2 11 6 11 9 11 13 14 14 14 15 20 14 11 4 12 12 8 4 3 5 2 2 2 5 2 4 11 15 18 9 10 14 9 11 13 13 14 14 15 16 17 16 15
26 25 25 25 26 24 8 7 13 14 13 6 11 9 9 8 11 7 2 7 7 12 8 7 4 1 1 8 14 11 1 11 6 5 1 0 7 4 5 11 17 17 16 13 23 10 22 16 17 16 16 15 18 17 10 13 10 3 4 14 13 9 2 1 3 4 1 3 7 2 1 7 15 11 7 12 13 14 15 17 16 15 13 15 17 17 15 16
25 26 26 25 26 22 6 7 12 14 5 13 13 12 9 8 5 6 4 8 0 3 1 12 3 4 5 9 12 8 2 1 5 2 2 1 2 3 7 7 11 13 15 22 18 11 5 16 20 19 15 14 4 4 8 16 14 4 4 6 9 7 5 4 2 1 2 1 13 13 7 8 24 5 8 4 13 18 13 15 18 14 13 14 14 14 16 16
27 26 25 26 21 15 5 4 7 5 9 13 14 14 11 9 6 7 10 8 2 2 1 2 12 12 14 15 10 12 8 0 2 1 2 4 5 2 2 3 4 8 11 12 14 7 4 10 11 10 12 7 8 8 14 17 7 5 8 6 4 4 5 2 2 3 2 8 16 21 11 11 20 6 10 9 11 4 4 7 8 8 10 11 13 15 16 15
26 27 27 26 14 11 9 7 7 11 12 14 16 16 12 5 6 10 14 2 4 3 5 8 7 15 20 18 12 12 7 3 3 8 4 2 4 8 3 2 2 4 8 10 13 8 3 5 8 5 9 4 9 5 4 11 10 12 4 6 8 1 4 2 0 4 10 14 22 20 11 12 14 8 7 4 1 5 9 8 11 10 13 14 11 13 15 15
25 27 29 19 9 10 15 11 10 10 14 17 16 11 10 10 1 14 6 3 0 5 9 7 10 12 19 18 14 15 13 3 6 7 9 9 7 11 11 7 6 9 10 14 14 9 9 10 5 9 9 18 9 9 3 8 9 11 9 11 12 5 6 10 6 13 17 19 5 1 6 8 19 24 0 0 2 2 3 5 9 10 12 12 11 12 12 11
27 26 29 14 13 9 5 10 11 10 12 18 13 9 9 7 13 11 4 4 4 2 5 7 13 16 16 19 12 14 10 13 4 3 4 4 11 10 13 15 4 2 5 13 11 13 8 4 10 7 9 13 16 15 10 11 12 13 15 13 12 11 10 13 12 5 8 10 7 9 2 12 10 22 12 24 16 8 4 7 7 7 10 12 12 9 7 7
27 25 17 12 10 8 7 11 12 17 13 12 13 11 7 10 9 11 11 2 3 2 8 6 12 10 19 13 9 15 10 4 13 8 9 5 7 10 10 9 4 1 4 7 14 14 9 13 10 15 9 13 17 17 19 14 18 16 9 14 12 10 7 13 8 15 13 9 2 4 1 7 5 8 1 3 4 11 15 12 10 9 8 7 5 5 5 6
27 18 12 11 8 9 12 10 13 19 13 12 11 10 15 13 4 9 11 2 4 1 3 7 13 13 11 9 4 13 3 6 8 8 6 9 11 10 11 11 10 6 2 4 4 3 21 9 8 23 11 23 18 12 11 7 5 7 6 5 8 17 4 10 6 7 8 8 5 6 9 4 15 5 4 2 1 2 1 3 2 4 6 7 8 9 8 8
20 8 11 8 7 8 11 13 14 14 14 11 11 12 15 10 8 3 5 6 2 3 9 8 5 7 8 5 1 16 3 3 8 9 4 8 7 11 4 6 11 15 5 5 1 10 4 12 9 14 10 22 22 17 14 18 15 10 8 15 17 8 10 1 3 0 3 1 12 3 7 10 13 22 21 16 7 9 1 3 3 6 8 9 11 10 9 10
9 12 11 9 9 10 11 13 14 13 11 11 11 13 12 3 4 2 4 9 7 15 11 14 8 8 10 6 6 14 4 6 8 10 7 4 6 7 8 5 7 11 11 5 2 4 2 3 9 14 12 14 17 16 12 18 3 10 14 12 4 3 3 4 8 1 3 7 6 9 16 12 5 17 0 10 17 17 11 9 10 11 10 11 11 10 12 12
9 10 7 7 9 11 13 15 15 9 9 9 12 11 1 7 2 4 1 5 7 5 8 8 4 11 9 11 10 14 8 13 8 10 6 13 5 11 6 7 8 12 14 6 0 1 1 1 1 10 19 12 9 12 9 12 7 16 14 12 13 6 7 5 2 12 4 9 6 12 14 18 14 20 4 2 7 8 12 10 7 6 7 8 9 14 15 13
9 10 7 9 9 13 13 12 12 12 9 8 9 15 3 4 3 4 4 5 6 9 11 6 3 5 7 10 6 11 14 12 11 10 9 5 8 9 16 7 6 8 14 11 5 2 3 2 1 4 9 8 10 13 14 12 5 5 3 9 6 3 13 15 14 5 7 13 4 19 9 16 10 16 19 4 2 6 7 6 7 10 11 12 12 13 15 15
11 6 2 2 11 11 13 15 12 11 7 14 12 7 2 4 3 3 6 12 3 4 4 5 2 10 10 5 13 8 8 8 11 6 9 4 9 0 9 8 10 10 12 13 7 3 1 1 3 2 0 12 11 10 13 16 17 7 6 8 7 6 2 4 4 13 9 9 14 10 15 8 11 6 9 6 11 10 10 12 13 14 14 16 16 17 17 18
5 4 2 1 11 11 15 10 8 13 11 1 2 2 3 3 1 3 8 3 4 3 2 4 8 9 10 11 8 8 4 6 7 7 7 4 11 5 5 8 11 13 9 7 9 5 2 2 5 0 1 8 4 9 5 11 15 16 16 17 19 17 11 12 13 5 9 8 6 7 19 11 6 3 9 12 13 13 14 16 15 16 17 16 14 14 14 13
10 7 4 4 5 17 14 11 5 2 3 9 11 6 4 4 3 4 4 1 4 3 1 4 2 4 4 3 8 12 7 8 9 8 6 9 7 5 2 11 13 17 14 9 10 5 4 2 2 5 4 6 5 4 4 4 5 2 6 9 10 12 9 10 14 12 7 13 4 12 11 19 3 1 5 7 7 9 11 9 10 10 13 12 11 9 9 11
7 4 4 4 3 17 9 6 3 5 5 1 7 4 2 2 4 4 4 2 3 1 2 2 7 6 2 4 3 7 11 7 11 11 8 10 2 3 5 13 10 14 9 3 8 2 6 3 2 3 0 3 4 5 7 5 3 6 5 3 7 13 14 12 10 5 11 9 10 9 12 15 4 2 3 1 2 2 2 5 8 7 7 10 10 8 10 11
5 4 3 3 5 10 11 9 8 10 4 1 2 3 2 1 2 7 6 2 1 2 4 3 2 1 5 3 6 13 12 5 4 6 3 2 3 3 13 12 17 9 9 9 10 12 6 5 4 3 2 2 2 2 4 3 2 2 3 5 8 7 11 11 6 1 7 11 15 11 20 11 11 4 2 3 2 1 1 1 4 7 7 9 9 9 9 9
7 3 4 3 5 1 13 4 5 6 6 8 7 7 4 0 1 2 3 5 0 2 4 2 2 4 3 3 6 5 6 3 3 6 2 2 3 1 9 15 15 13 2 5 2 10 6 5 10 9 9 9 9 9 9 6 6 2 2 3 5 8 11 8 13 8 12 7 12 13 12 12 11 1 2 3 2 3 3 4 4 5 6 7 8 9 10 7
3 6 2 3 3 3 3 1 2 6 6 6 6 4 4 4 0 2 3 1 1 2 2 3 2 5 4 7 6 6 9 2 3 6 7 4 2 0 5 13 12 6 3 9 8 8 2 1 6 9 11 11 6 5 3 7 4 4 3 7 5 3 6 8 5 9 15 6 13 12 11 11 17 19 13 2 2 1 4 4 4 5 7 8 8 10 9 8
3 3 4 6 3 2 1 2 4 6 8 9 6 4 7 4 3 1 1 2 3 3 2 1 3 7 4 11 6 6 6 3 1 5 8 7 2 2 1 9 6 1 8 6 8 5 2 1 7 8 12 14 12 4 5 5 4 4 5 6 7 6 5 8 10 6 7 6 16 8 12 11 19 22 17 5 1 3 4 5 7 5 7 9 8 6 8 9
4 2 3 0 3 7 6 4 6 8 3 8 2 5 9 8 5 7 1 1 1 2 5 2 3 4 13 13 10 8 8 5 2 8 3 1 4 2 5 2 6 4 5 2 5 4 4 5 7 7 14 12 12 5 9 6 8 10 12 14 14 12 11 13 15 14 8 8 5 5 11 6 14 16 8 6 7 5 7 8 6 7 8 8 9 9 10 11
3 2 2 1 2 3 1 2 9 7 9 7 2 7 8 10 9 2 2 3 2 3 1 5 8 7 10 7 10 7 12 8 2 3 7 7 8 6 5 3 4 1 3 3 3 1 3 4 4 7 11 13 4 6 5 9 4 5 9 12 12 12 14 15 15 11 12 14 5 5 11 15 11 15 15 5 4 5 6 6 8 10 9 8 9 9 10 11
3 5 2 2 4 4 4 7 7 10 8 7 6 7 9 9 10 2 1 2 5 5 0 5 10 7 10 10 9 11 14 13 16 12 6 10 5 2 6 3 5 5 6 4 4 3 3 4 9 5 8 11 8 6 7 8 8 8 6 7 7 7 9 11 9 7 4 5 4 7 9 14 9 11 14 4 3 4 3 4 5 9 9 10 10 12 13 13
2 1 5 9 6 2 5 5 7 9 8 1 5 4 6 10 9 3 2 1 2 4 4 12 10 7 2 7 6 10 11 7 4 11 16 18 15 10 9 3 7 7 6 4 3 0 4 2 2 5 8 8 6 11 10 10 11 12 10 10 9 10 10 8 10 6 8 9 6 4 4 9 10 12 17 20 6 4 6 5 5 7 8 9 10 12 11 9
2 1 2 7 5 3 5 3 3 6 7 3 1 6 6 12 5 5 4 1 1 0 2 8 11 12 3 6 8 9 6 4 6 4 11 0 2 6 2 6 12 12 8 7 3 5 4 3 4 3 7 4 3 11 10 8 6 10 14 13 15 12 3 2 4 7 10 8 6 6 8 5 7 8 13 21 16 10 10 6 7 6 7 6 8 11 12 11
Wind_Direction
227 229 231 236 237 235 232 231 232 232 231 234 240 240 238 238 238 237 240 238 229 224 215 207 207 209 206 202 204 213 212 224 184 205 214 227 212 220 306 266 124 119 105 52 3 17 336 6 32 335 27 26 299 26 279 28 29 62 143 114 223 197 157 208 178 189 188 95 255 207 207 136 186 171 204 110 38 60 1 243 310 297 263 226 260 290 142 135
224 226 228 231 235 235 232 230 230 232 231 232 236 240 239 236 238 241 240 242 237 227 219 210 205 206 204 200 201 210 209 207 227 226 226 200 216 198 226 216 145 129 101 20 61 55 1 308 341 46 75 85 326 271 6 222 69 112 112 124 232 171 236 169 200 189 124 280 187 218 209 170 219 146 216 135 248 114 132 268 12 307 291 319 357 127 133 145
224 223 227 228 231 232 232 229 229 230 232 230 232 237 239 236 236 240 239 239 239 233 222 215 204 204 208 196 195 194 194 219 233 242 237 225 203 207 217 200 140 134 110 142 197 149 183 232 211 88 6 137 1 219 11 255 138 218 126 221 240 209 242 229 185 191 204 127 136 167 243 171 235 150 140 197 173 101 196 204 295 254 244 235 289 146 151 157
224 222 224 226 228 230 230 229 228 228 230 230 230 233 237 236 234 238 241 238 241 237 227 219 207 202 201 198 184 181 181 272 251 255 236 216 213 208 216 232 235 133 104 97 148 112 113 101 62 99 68 125 297 43 176 257 131 267 120 202 231 199 151 255 186 237 222 180 156 154 72 166 252 204 158 165 113 242 260 234 186 207 218 193 185 175 165 163
222 221 222 223 226 228 228 227 226 226 227 229 229 230 233 235 232 235 240 241 243 240 232 223 211 196 200 203 187 158 121 349 257 202 220 194 203 205 204 218 208 143 149 134 95 74 82 106 120 41 94 217 357 33 253 264 157 110 210 185 181 94 198 257 214 187 143 138 99 105 131 217 85 73 161 155 174 217 212 225 216 223 193 159 176 186 172 178
222 221 218 221 224 226 226 225 225 224 225 228 229 229 230 232 231 233 238 242 242 243 235 225 207 188 200 192 163 170 149 213 249 314 275 193 191 194 193 199 181 137 116 127 135 119 109 3 94 131 138 115 192 170 263 155 127 226 299 252 195 205 163 267 183 206 131 109 125 136 223 86 162 224 202 182 196 232 217 194 207 215 178 178 152 156 176 186
221 220 219 218 221 223 224 224 224 224 223 225 228 229 230 229 231 231 233 239 241 242 236 224 208 180 186 172 177 176 203 236 78 260 328 201 194 183 181 187 149 139 140 128 127 125 142 137 129 211 113 149 268 195 248 135 19 198 244 293 255 166 216 176 157 79 156 130 218 200 77 205 144 231 134 192 240 228 195 227 233 192 135 145 154 182 182 189
220 219 217 215 218 221 222 223 223 222 221 222 226 229 228 229 229 231 230 232 238 241 237 220 204 185 176 176 160 205 201 224 241 327 321 216 186 179 175 162 147 146 155 168 157 161 143 156 180 142 171 162 217 175 192 127 77 209 257 210 267 143 246 262 175 21 41 275 352 86 167 246 186 200 83 235 238 241 228 82 107 124 133 152 168 185 196 199
217 217 214 212 214 217 219 222 221 220 220 221 225 227 228 228 229 231 229 228 233 236 236 222 195 181 187 158 209 217 219 195 231 40 67 91 151 164 159 150 155 159 169 160 175 169 139 211 172 181 219 192 203 161 251 168 280 198 226 152 312 247 273 280 315 275 267 280 209 354 246 263 256 253 267 234 240 235 120 74 119 130 147 177 191 192 190 198
216 216 213 211 211 213 216 220 222 218 216 219 222 225 227 228 228 229 229 223 227 233 232 227 190 177 191 163 196 228 250 156 210 101 106 119 119 138 172 164 163 163 154 182 150 155 174 189 177 185 132 155 138 205 183 181 230 198 207 186 209 243 355 34 209 333 348 208 167 205 261 266 332 108 268 182 215 125 107 117 154 154 184 197 198 198 204 199
214 213 212 209 209 211 213 218 219 217 215 215 218 222 224 224 227 229 227 221 221 229 232 222 206 150 217 212 197 224 114 179 181 121 125 126 132 148 179 176 175 164 162 165 181 172 176 151 149 98 10 223 132 242 121 223 164 128 163 110 267 265 248 274 337 283 335 293 174 190 248 298 290 95 238 124 167 157 148 164 169 191 201 206 209 205 208 215
217 214 211 209 207 209 211 215 217 215 213 213 215 219 221 223 223 223 226 219 223 226 228 222 205 177 222 255 228 219 249 184 151 152 132 132 157 177 167 169 186 174 161 171 188 182 158 162 146 159 190 131 197 107 242 213 121 191 154 259 280 307 280 227 226 241 147 257 153 175 329 265 205 225 230 148 120 154 166 181 188 202 213 214 213 212 207 217
216 213 210 209 207 206 208 212 216 212 210 210 212 217 218 220 222 225 230 225 223 227 224 219 198 187 134 243 250 180 323 335 117 109 110 115 94 64 118 146 146 126 180 164 175 187 154 143 155 167 216 133 165 163 138 115 237 89 67 205 289 278 270 236 179 108 153 242 138 146 269 199 225 237 225 201 132 131 162 207 209 216 221 221 214 215 224 226
218 213 207 207 206 204 205 209 213 212 208 207 210 213 217 216 218 219 226 220 219 218 219 213 185 165 209 248 11 213 328 338 106 109 130 131 108 89 105 101 112 91 64 87 81 147 100 114 133 138 133 115 188 290 55 1 64 197 227 90 229 240 251 251 183 174 182 210 172 138 247 251 267 249 238 241 169 162 204 222 215 218 222 224 217 223 226 229
214 211 207 204 203 203 202 206 210 210 207 205 206 209 213 216 216 221 228 222 216 202 209 184 188 117 224 268 72 245 99 34 167 180 160 141 121 90 114 127 128 102 105 131 138 222 132 96 107 138 192 240 73 109 340 125 10 217 120 231 106 206 307 299 260 157 189 275 163 133 249 245 252 264 203 224 188 189 210 222 223 219 221 224 224 226 232 235
214 208 205 204 202 200 200 202 207 207 206 203 202 204 207 214 215 226 218 219 213 170 53 195 197 176 74 243 226 86 123 153 212 197 189 141 146 149 154 138 119 107 111 23 121 95 32 88 115 169 115 72 133 130 93 58 258 257 210 218 211 160 233 315 245 210 199 158 267 182 235 319 282 266 264 223 190 203 221 238 239 236 230 227 231 230 234 246
208 208 200 199 198 200 198 199 202 205 204 199 197 196 201 206 217 227 225 210 306 113 172 216 161 172 221 54 59 178 159 197 116 84 199 209 136 127 116 118 116 105 86 74 108 102 3 145 321 53 8 146 161 129 165 226 232 223 164 229 173 188 130 230 320 223 235 189 214 227 231 239 224 248 316 282 220 216 227 239 241 240 239 232 233 236 239 238
205 205 200 196 196 197 197 196 198 203 199 194 185 181 199 211 309 274 114 120 45 126 196 326 152 107 270 247 207 185 165 153 180 165 156 4 136 143 137 123 126 129 121 103 193 144 208 169 192 199 128 166 163 180 193 220 213 205 189 217 253 45 197 210 173 256 172 258 231 214 234 250 248 253 280 245 161 193 231 240 247 254 250 247 241 244 244 243
205 205 198 195 193 194 194 193 195 195 191 184 177 130 103 69 86 95 281 137 164 150 192 194 165 195 204 214 186 15 135 150 95 140 164 145 167 137 106 114 135 138 155 157 247 157 163 83 125 164 206 195 203 197 209 162 120 213 201 187 190 207 216 219 216 264 176 211 230 228 227 243 248 244 248 259 207 194 231 258 280 266 262 261 253 250 250 246
197 202 195 192 190 191 192 192 192 193 188 179 137 101 95 182 115 198 195 202 212 213 353 173 194 141 38 23 154 208 150 358 143 203 135 97 134 129 131 137 147 148 151 187 146 194 144 185 190 199 208 205 202 206 216 196 75 148 159 182 212 224 234 244 243 225 185 220 230 230 232 246 253 237 238 230 237 235 256 261 257 255 257 255 251 249 247 246
196 195 193 190 189 187 189 191 191 190 185 156 143 144 194 174 174 204 185 215 205 220 29 194 193 209 53 321 102 138 122 42 19 161 170 157 154 140 190 148 157 180 184 169 155 88 173 203 218 214 210 196 202 206 209 225 225 57 189 194 216 209 233 200 222 209 234 186 283 218 239 249 256 249 242 237 222 238 239 243 250 257 254 253 254 259 258 256
194 196 191 188 186 185 187 186 190 187 179 145 168 186 219 200 134 295 129 205 221 237 316 296 209 225 353 3 269 316 138 155 197 164 168 166 170 174 181 175 170 188 171 135 113 159 203 210 217 215 198 202 208 205 208 216 223 258 277 272 239 223 219 286 231 162 182 176 254 252 241 245 253 248 237 235 225 230 230 225 235 242 250 251 251 253 258 263
193 191 186 184 184 184 184 185 187 184 161 170 188 198 219 197 53 24 96 37 216 159 205 182 201 198 152 246 310 45 182 163 183 172 177 173 173 192 156 182 186 175 174 158 171 160 205 227 227 173 181 205 207 195 192 207 227 226 226 222 218 136 153 225 218 161 206 185 208 238 256 262 270 263 247 232 223 234 232 228 234 235 244 247 246 245 250 252
194 186 182 182 182 182 181 182 179 174 187 188 194 197 17 97 99 72 62 182 215 224 191 216 204 200 173 153 212 138 197 216 158 188 168 180 180 157 171 183 182 180 187 178 183 189 207 221 170 137 193 201 194 173 174 191 217 221 221 224 216 164 200 217 219 229 88 285 21 299 284 269 246 264 254 230 222 233 239 234 238 244 241 247 252 254 244 248
186 181 178 178 182 176 179 169 178 194 181 186 209 189 129 122 123 133 96 5 293 307 140 0 138 271 189 52 181 157 201 327 240 156 173 179 171 156 197 172 180 195 179 187 185 203 225 196 142 194 196 166 161 184 192 190 216 218 220 213 199 156 167 183 144 146 351 308 181 145 296 264 227 239 248 238 211 225 238 234 235 239 239 244 249 247 248 246
180 178 177 176 176 177 164 172 206 178 177 200 189 166 95 80 113 108 101 144 247 188 139 218 124 236 133 205 109 157 111 223 155 218 158 190 336 192 146 203 179 188 184 176 192 209 212 174 172 191 149 171 189 202 197 186 215 215 218 196 193 192 158 122 137 96 308 257 311 169 228 278 101 262 233 226 217 220 244 227 238 237 239 241 243 247 247 247
173 176 175 175 174 159 150 202 157 152 182 207 162 139 137 106 105 95 158 250 251 166 168 136 181 213 171 168 141 130 194 197 75 34 167 186 186 3 222 170 171 197 172 156 176 217 159 174 168 170 169 179 195 208 198 189 198 230 125 164 192 197 116 101 87 120 269 304 263 236 207 273 284 259 249 239 246 224 235 240 229 233 233 235 240 244 244 247
175 172 172 172 173 165 179 117 144 182 196 90 123 121 114 125 92 71 264 228 237 118 185 175 216 51 79 159 149 175 235 130 168 216 24 259 142 222 233 192 186 178 170 163 206 157 190 175 185 176 186 191 203 206 178 178 198 218 163 153 194 181 170 117 110 111 173 17 288 215 36 294 249 270 194 224 248 236 229 238 237 237 229 233 239 245 246 244
173 172 170 174 171 167 132 148 170 187 153 132 121 128 126 118 93 159 208 236 257 107 271 155 124 83 109 151 173 192 55 323 187 106 152 96 349 100 205 250 217 188 178 183 200 196 191 185 192 183 186 203 176 128 137 168 205 202 146 154 155 165 194 168 134 107 4 259 258 246 164 240 274 140 229 177 227 243 226 229 240 237 231 229 238 243 244 245
174 171 169 170 167 171 167 136 166 133 144 122 124 112 114 95 101 202 218 238 104 232 238 159 173 177 150 166 178 197 176 137 74 75 141 163 165 78 275 103 268 198 191 206 220 206 171 201 169 174 196 177 143 164 167 186 174 121 92 88 91 127 169 79 125 151 7 245 246 242 193 198 277 203 209 151 227 224 191 231 247 242 242 239 228 233 240 240
169 169 172 167 174 174 140 168 161 143 135 128 126 121 112 137 194 189 230 226 64 241 136 184 146 153 156 162 173 190 188 139 124 154 141 137 154 173 42 263 232 253 179 192 213 211 150 120 155 207 171 118 131 160 190 162 144 140 133 119 100 333 58 114 302 126 215 248 248 240 215 200 239 289 184 206 15 190 182 211 226 232 238 238 228 233 238 240
171 170 170 170 150 140 176 177 148 146 135 134 125 137 152 181 250 214 193 52 289 215 172 127 171 155 169 165 178 171 179 136 167 167 157 174 160 171 192 211 177 206 204 183 199 188 212 188 152 167 163 141 156 115 6 130 162 166 132 139 171 195 143 221 142 204 204 223 232 27 152 261 232 241 1 208 208 256 207 214 216 227 243 245 246 237 239 244
173 169 170 163 146 171 149 122 137 141 148 134 132 149 171 199 210 213 241 153 244 165 203 164 160 168 160 168 181 165 166 186 120 169 119 187 180 207 193 196 84 42 217 181 190 186 220 195 175 157 140 176 159 168 158 169 189 170 170 171 180 190 182 218 209 223 248 263 246 51 155 242 287 287 227 249 244 226 206 222 236 229 237 243 242 248 251 260
171 165 171 168 153 142 135 146 142 146 154 141 135 153 196 213 225 186 221 163 226 25 148 157 154 147 165 181 160 164 178 180 162 177 160 170 180 194 203 209 186 109 330 182 193 175 173 214 212 152 201 160 187 186 178 180 175 188 169 178 191 185 191 215 194 210 217 231 279 129 343 211 150 245 19 175 268 244 222 211 211 222 236 259 286 302 287 277
165 162 151 156 137 150 148 147 148 146 139 143 150 180 192 206 214 181 206 207 281 134 102 152 157 156 163 178 173 175 156 171 169 144 155 162 201 189 184 198 183 128 266 229 213 192 204 218 161 186 167 168 186 184 170 115 151 192 176 158 194 215 175 228 181 212 209 225 228 189 206 179 226 235 139 154 328 22 35 251 327 285 271 272 284 275 266 251
154 148 151 151 143 157 148 151 150 149 141 148 154 191 207 192 206 152 211 142 182 162 128 106 122 152 170 152 113 180 322 144 164 157 207 193 188 200 170 175 174 177 155 211 342 197 172 232 156 175 159 178 182 174 180 148 193 172 156 210 210 204 210 95 352 16 71 87 239 169 279 271 301 284 267 257 247 253 197 208 210 242 247 248 253 257 261 260
135 141 163 151 157 151 151 152 153 154 154 160 183 199 202 239 203 153 159 163 173 139 144 155 189 159 172 165 166 175 194 86 186 172 207 138 238 190 159 194 156 171 190 148 247 313 216 204 176 162 182 195 187 177 170 188 126 141 203 194 66 50 109 168 219 46 175 214 249 181 231 246 216 277 240 228 221 224 208 205 208 215 222 235 244 259 254 253
131 151 117 140 155 151 149 161 149 149 150 172 197 208 45 213 205 165 163 123 122 166 158 162 171 173 172 168 183 172 168 181 170 179 193 173 269 161 183 161 180 175 185 182 259 289 60 253 228 202 183 184 166 155 188 205 182 187 200 157 175 157 203 218 155 230 178 221 244 231 221 239 215 248 251 79 207 219 209 210 200 224 234 242 250 254 260 260
126 136 155 160 135 151 153 153 149 151 166 172 204 204 178 265 163 198 177 147 153 151 172 207 113 189 156 183 159 169 167 191 165 183 175 205 210 190 187 125 195 177 175 154 194 189 348 178 37 220 195 144 159 166 195 188 262 357 66 183 182 168 202 184 202 229 219 241 239 255 218 246 213 235 253 228 249 203 198 198 206 213 216 218 225 236 250 258
137 134 197 146 141 145 143 147 156 167 176 205 199 216 128 195 243 228 179 151 191 162 234 144 203 148 182 163 164 162 169 182 175 177 194 168 203 289 180 183 151 166 161 172 161 188 126 278 203 311 195 153 194 179 191 177 192 208 181 186 180 211 312 231 212 207 208 222 229 260 258 236 234 218 251 200 217 189 179 193 206 210 214 216 213 218 229 238
95 92 77 43 143 137 147 147 151 181 183 202 15 162 151 193 197 219 186 147 110 337 172 159 156 176 164 148 166 162 157 160 165 186 185 215 181 227 205 172 147 156 137 127 154 165 123 188 176 272 227 210 171 167 213 214 200 194 186 190 185 181 188 183 224 206 222 223 226 219 252 262 259 215 211 197 215 192 197 194 202 208 215 220 221 224 230 243
136 143 152 358 173 146 148 147 167 160 163 189 198 153 178 203 108 216 167 277 117 148 326 95 23 123 134 148 149 168 159 169 180 177 199 203 214 218 208 157 166 149 149 187 179 177 151 138 132 214 192 217 244 43 96 82 72 204 222 225 202 206 195 200 212 201 200 222 188 236 259 255 203 227 200 202 213 198 207 200 205 213 223 230 236 236 248 256
131 111 332 22 298 154 129 174 119 156 189 225 82 42 13 74 153 176 167 247 165 155 100 119 178 134 254 131 162 160 167 185 175 191 191 202 275 198 175 151 146 165 146 122 76 259 71 132 126 276 316 323 318 60 45 3 12 311 276 273 215 210 202 214 216 200 211 203 220 238 249 265 264 231 233 272 301 248 234 194 207 221 228 238 242 242 241 250
87 116 92 14 11 174 169 189 175 183 148 161 95 122 27 170 160 158 187 214 170 195 159 150 41 278 152 155 147 172 175 164 205 176 203 192 202 249 153 149 159 170 169 196 158 189 159 220 164 203 289 329 303 23 31 26 98 162 284 232 233 237 222 228 251 75 241 205 215 200 235 246 260 180 65 17 355 31 299 279 221 226 245 243 242 248 248 251
104 61 66 0 25 164 188 199 176 162 163 150 144 154 146 60 277 226 164 175 198 169 138 177 182 146 102 151 147 149 173 143 159 202 99 164 194 39 173 160 175 172 200 188 85 177 184 163 157 206 203 210 212 218 230 204 192 168 199 273 281 235 230 208 224 211 242 208 209 221 242 251 269 66 11 14 344 358 296 278 303 247 252 261 261 256 260 261
145 135 163 50 27 21 31 40 108 130 129 140 136 166 127 129 282 252 131 113 180 107 79 124 22 96 99 125 136 158 174 316 125 188 174 184 232 347 204 177 176 181 197 133 149 149 157 221 187 188 209 223 234 61 47 87 71 143 228 187 225 259 287 265 279 232 231 211 231 225 234 255 268 263 251 264 11 337 302 316 284 285 278 272 267 266 269 276
90 96 159 149 53 6 10 58 142 149 170 163 156 154 173 166 149 49 281 168 225 150 89 74 180 134 181 142 149 165 176 101 5 139 176 149 243 209 138 178 187 253 141 139 160 89 95 204 226 216 230 237 235 185 179 153 190 173 197 216 203 230 240 273 256 263 360 254 246 220 228 224 249 258 258 261 331 325 298 282 290 272 258 258 271 299 302 291
130 193 74 271 139 178 160 222 183 169 136 171 154 146 169 156 191 162 35 323 54 321 126 2 183 201 169 166 153 153 170 149 125 161 124 227 106 149 112 211 186 218 162 136 181 123 152 203 209 196 239 243 253 210 180 191 206 225 224 235 235 221 213 221 243 244 236 271 298 335 344 286 252 264 302 46 37 349 317 318 301 299 317 333 335 313 294 279
101 103 98 328 128 3 265 96 160 153 150 165 77 170 169 173 177 169 160 133 154 236 99 158 194 191 179 162 147 149 162 147 242 216 171 172 159 147 117 132 230 158 134 138 156 197 148 241 197 188 231 241 213 157 178 181 182 193 208 214 220 210 213 210 227 224 209 229 190 261 292 280 288 290 290 307 332 315 312 319 328 335 330 317 310 298 283 280
173 143 165 58 69 99 114 125 154 148 160 177 157 206 168 176 174 171 5 129 162 204 178 178 177 178 167 170 161 162 187 190 174 170 202 148 161 155 164 182 145 165 162 153 159 285 162 225 182 172 219 241 216 194 167 181 182 216 203 199 188 192 200 208 215 213 200 240 207 216 246 278 287 275 286 280 260 296 356 356 317 299 307 309 307 303 307 307
153 136 142 118 91 110 119 130 152 166 158 246 179 185 169 179 173 142 162 207 213 182 193 186 157 133 138 156 168 184 187 177 176 176 168 167 174 187 158 234 149 139 151 138 144 314 178 269 88 164 208 237 199 196 192 191 207 223 217 197 193 188 204 194 203 187 187 205 165 161 242 258 270 301 312 301 289 283 288 269 264 274 280 292 297 298 295 298
83 344 86 106 96 148 138 138 133 134 191 189 158 174 177 180 133 146 104 259 146 229 238 151 158 137 164 146 188 197 179 164 200 174 160 191 94 138 119 166 155 159 168 166 153 146 164 180 159 206 209 242 202 183 180 186 207 231 216 205 200 206 166 131 196 189 198 182 182 195 238 231 263 282 287 289 298 302 290 257 255 264 262 268 291 295 296 293